Location: Alpha Ridge Park
(39.3209°N, 76.9128°W)
Time: 06:54:30
(UTC-04:00)

Transit 2A - Pass Details

Date: 28 May 2019
Orbit: 593 x 966 km, 66.7° (Epoch: 16 June)

Event Time Altitude Azimuth Distance (km) Brightness Sun altitude
Rises 05:19:37 0° 147° (SSE) 3,533 9.4 -5.0°
Reaches altitude 10° 05:24:28 10° 113° (ESE) 2,661 9.3 -4.2°
Maximum altitude 05:25:57 11° 99° (E) 2,612 9.6 -4.0°
Drops below altitude 10° 05:27:27 10° 85° (E) 2,689 10.0 -3.8°
Sets 05:32:25 0° 52° (NE) 3,658 12.2 -2.9°
